Wind_Speed
37 38 39 40 41 42 44 45 46 46 47 47 48 48 48 49 50 52 53 54 56 57 58 59 60 60 61 61 61 61 62 62 62 62 64 65 65 65 64 62 60 57 54
40 41 42 43 44 46 47 49 50 50 50 49 49 50 50 51 52 53 54 55 57 57 58 58 58 59 58 59 59 60 61 62 62 62 62 61 60 58 54 51 48 45 42
44 44 45 46 48 49 50 51 52 51 51 50 50 51 51 52 53 54 55 56 56 56 56 56 56 56 57 57 58 59 60 61 60 59 56 53 50 47 43 40 38 36 34
47 48 48 49 50 51 52 53 53 53 52 52 52 52 52 53 53 54 54 54 55 55 54 54 54 54 55 57 57 58 58 57 54 51 46 42 40 38 35 33 32 31 31
48 49 49 50 51 52 53 53 53 54 54 53 53 53 53 53 53 53 53 53 53 53 52 52 53 54 55 55 55 54 53 49 44 40 36 34 33 31 31 30 30 29 30
46 47 49 51 52 53 53 53 53 54 53 53 53 53 53 53 52 52 52 52 51 51 51 52 52 52 52 52 50 48 44 39 34 31 30 29 29 29 29 29 30 29 29
46 47 49 51 52 53 53 53 53 52 52 52 52 52 52 52 52 51 51 50 50 49 49 50 50 49 48 45 42 39 34 30 27 26 26 27 27 27 28 28 28 28 27
47 49 50 50 51 51 51 51 51 51 51 51 51 51 51 50 50 50 49 48 48 48 47 46 44 42 39 36 33 29 27 25 25 25 26 26 27 27 26 26 24 23 22
48 48 49 49 49 49 49 49 49 49 49 49 49 49 49 48 48 47 47 47 45 44 42 40 37 33 30 26 23 22 21 22 23 24 25 25 25 24 23 22 20 19 19
46 47 47 48 48 48 47 47 47 47 47 47 47 47 47 46 45 45 44 42 40 38 36 33 28 24 21 18 17 17 19 20 22 23 23 23 22 21 20 18 17 17 18
45 45 45 45 45 45 45 44 44 45 45 45 44 44 43 42 41 39 37 35 33 31 28 25 21 16 13 12 14 15 17 19 20 20 20 20 20 19 18 17 17 17 17
42 42 42 41 41 41 41 41 41 41 41 41 40 39 38 36 34 32 29 27 25 23 21 17 13 10 9 11 13 14 16 17 17 18 19 18 18 18 17 17 17 17 17
38 38 38 38 38 38 38 38 39 38 38 37 36 34 32 29 27 24 22 20 18 16 13 9 7 7 8 10 11 13 14 15 16 17 18 18 17 16 16 17 16 17 17
34 35 35 36 36 36 35 35 34 33 32 30 29 27 26 24 21 19 16 14 11 8 5 4 3 5 6 8 9 11 12 14 16 17 18 17 17 16 16 17 17 17 18
32 33 33 33 32 31 31 30 29 28 26 24 23 21 19 17 14 12 10 7 4 2 1 0 2 4 5 7 9 11 13 15 17 18 18 18 18 18 17 18 18 19 19
29 28 28 27 27 27 26 25 23 21 19 17 16 14 13 11 8 6 3 1 2 3 3 3 4 5 6 8 10 11 13 16 18 19 19 20 20 19 19 20 20 21 21
24 24 23 23 22 21 20 18 16 14 12 11 10 8 6 4 2 1 4 5 6 6 5 5 6 7 8 9 10 12 14 16 18 19 20 21 21 22 22 22 22 22 23
20 19 19 18 18 16 14 12 10 8 6 5 4 4 3 4 6 8 9 9 8 7 7 7 8 8 9 10 11 12 14 17 19 20 21 22 23 23 24 24 24 24 24
17 17 15 15 13 11 9 8 6 6 5 6 6 7 8 10 11 11 11 10 9 9 9 9 10 10 11 11 12 13 15 17 19 21 22 23 24 24 25 25 25 25 25
15 14 12 11 10 9 8 7 7 7 8 9 10 11 12 12 12 12 11 10 10 10 10 11 11 11 12 12 13 14 16 18 20 21 22 23 24 25 25 25 25 25 25
14 12 11 10 9 9 9 9 10 11 12 12 13 13 13 13 13 12 11 11 11 11 11 11 12 12 12 13 14 15 17 18 20 21 22 23 24 25 26 26 26 25 25
14 12 11 10 10 10 11 11 12 13 13 13 14 14 13 13 13 12 11 11 11 12 12 12 12 13 13 14 15 16 17 18 19 21 22 23 24 25 25 25 25 25 25
14 13 11 11 11 11 11 12 12 13 13 13 13 12 12 12 11 11 11 11 11 11 12 12 12 13 13 14 14 16 17 18 19 20 21 22 23 24 24 24 25 25 24
14 13 12 11 11 11 11 11 12 12 12 12 11 11 11 11 11 10 10 10 10 11 11 12 12 12 13 13 14 14 15 16 17 18 19 20 21 22 22 22 23 23 23
14 13 11 11 10 10 10 10 10 10 10 10 10 10 10 10 10 10 10 10 10 10 11 11 12 12 12 12 13 13 14 15 16 17 18 18 19 20 20 21 21 21 21
15 13 11 10 10 9 9 9 9 9 9 10 10 10 10 10 10 10 10 10 11 11 11 11 11 11 11 12 12 12 13 14 15 15 16 17 18 18 19 19 20 20 20
Wind_Direction
278 281 285 289 293 296 298 300 301 301 300 298 297 296 293 292 291 290 289 289 289 290 291 291 292 293 294 295 296 295 296 296 296 295 295 294 294 293 293 292 291 290 288
280 283 286 289 292 295 297 298 298 299 298 296 295 293 292 291 290 289 289 290 290 291 292 293 294 295 295 296 296 297 297 298 298 297 297 297 297 296 296 294 293 291 290
281 284 286 289 292 294 295 296 296 296 296 294 294 292 291 290 289 289 290 290 291 292 293 294 295 296 296 297 298 299 299 300 300 301 300 299 299 299 299 298 297 295 293
281 283 286 289 291 292 293 294 294 294 294 293 292 291 290 290 290 290 290 291 292 293 294 295 296 297 298 299 300 301 302 302 303 303 303 301 301 301 301 300 299 297 296
281 283 286 288 290 291 292 292 292 292 292 291 291 290 290 291 291 291 292 293 294 295 296 297 298 299 301 302 303 303 304 304 305 305 304 304 304 303 302 301 300 299 298
283 284 286 287 288 289 290 290 290 290 290 290 290 290 290 291 292 292 293 294 295 296 298 299 300 302 303 305 305 305 305 306 306 307 307 306 305 304 303 302 301 299 298
285 286 286 287 288 288 289 289 289 289 289 290 290 290 291 292 293 294 295 296 296 298 300 302 303 304 306 306 306 306 308 310 311 311 310 309 309 307 306 305 305 303 301
286 286 286 287 288 289 289 289 289 289 289 290 290 291 292 293 294 294 295 296 298 299 301 302 304 306 307 306 307 309 311 314 315 316 316 315 314 313 313 313 312 311 310
288 288 288 288 289 289 289 289 290 290 290 291 291 292 293 294 295 295 296 297 299 300 302 303 305 306 306 307 308 311 314 317 319 320 320 320 321 321 321 321 320 320 321
289 289 290 290 290 290 290 290 291 291 291 292 292 293 294 294 295 296 297 298 299 300 302 303 305 306 307 308 312 317 320 322 324 325 327 329 330 332 333 332 331 330 328
291 291 291 291 291 291 291 291 292 293 293 293 293 294 294 295 295 296 296 297 298 299 301 304 307 308 310 315 321 324 326 328 331 334 336 337 339 340 341 342 341 339 336
292 292 292 292 293 293 293 293 294 294 294 294 295 295 295 296 296 296 296 295 296 298 300 303 307 312 319 326 330 332 335 338 342 344 345 345 346 347 347 348 348 347 344
295 295 295 295 295 295 295 296 296 296 296 296 296 296 296 296 296 295 294 294 294 295 297 301 308 320 330 335 339 342 348 353 356 356 357 357 356 355 356 356 356 355 353
298 298 298 298 298 298 298 298 298 298 298 297 297 296 296 296 295 294 293 292 291 290 288 294 313 332 344 348 353 1 7 9 10 9 9 10 10 8 6 5 5 5 4
302 302 302 302 302 302 302 301 301 300 299 298 297 297 298 297 295 294 293 289 280 249 215 218 6 7 10 13 18 22 23 23 21 20 20 20 20 20 19 19 19 20 20
307 307 308 307 307 307 306 305 304 304 302 301 300 301 300 299 297 295 286 195 134 126 111 86 55 40 36 35 36 35 35 32 29 27 28 29 30 31 32 33 34 34 35
313 313 314 314 315 314 313 313 312 311 309 309 310 312 312 313 319 114 123 121 116 108 97 82 65 59 53 48 47 45 41 36 34 33 35 37 39 41 41 42 44 45 46
321 321 321 322 323 324 326 327 329 331 334 343 358 16 44 79 99 109 112 110 105 98 92 82 74 69 63 61 58 52 45 41 39 39 42 44 46 47 47 49 50 51 51
332 331 332 333 336 341 348 356 5 19 33 46 59 72 87 95 98 101 102 101 97 94 90 82 77 73 72 70 64 57 51 48 46 47 49 50 51 51 51 53 54 55 56
345 347 350 354 3 14 24 36 48 58 66 73 81 87 92 94 95 94 95 94 94 92 88 84 79 79 79 75 69 64 59 56 54 53 53 52 53 53 53 54 55 56 58
5 10 15 22 31 42 53 62 69 74 79 82 84 86 87 88 88 88 89 91 91 90 88 86 84 85 83 78 74 71 66 62 58 56 55 54 54 55 55 54 55 56 57
21 26 34 43 52 61 69 74 76 78 81 83 83 82 82 82 83 84 87 89 89 89 90 87 87 89 86 82 78 75 71 66 61 58 56 54 54 55 54 54 54 55 56
32 40 49 58 64 69 73 76 78 80 81 81 80 78 77 77 79 82 86 89 90 92 93 92 92 91 90 86 82 78 73 67 62 59 56 54 53 53 53 52 52 53 54
37 46 54 61 66 71 75 78 79 80 79 78 76 74 73 75 77 82 87 91 92 95 98 99 96 95 93 88 84 79 73 67 62 58 56 54 51 50 49 49 49 49 50
41 48 55 61 66 70 74 77 79 78 77 75 73 73 73 75 79 83 90 97 98 98 102 104 101 98 94 88 83 77 72 66 61 57 54 51 48 46 45 45 45 46 46
41 47 54 60 65 69 74 77 78 77 75 75 74 74 76 78 80 85 92 98 99 100 104 107 103 99 95 90 83 77 70 64 60 56 52 49 48 46 45 44 45 45 45
Height
5790 5787 5785 5782 5779 5776 5772 5769 5766 5762 5759 5756 5752 5749 5745 5741 5737 5733 5728 5724 5719 5714 5708 5703 5697 5691 5685 5678 5672 5665 5658 5651 5646 5639 5629 5621 5613 5606 5598 5591 5584 5579 5574
5780 5777 5774 5771 5768 5765 5761 5757 5754 5750 5746 5743 5739 5735 5731 5727 5723 5719 5714 5709 5704 5699 5693 5688 5682 5676 5670 5664 5657 5650 5643 5635 5628 5622 5613 5603 5595 5588 5581 5574 5568 5563 5559
5770 5767 5764 5760 5757 5753 5749 5745 5741 5737 5733 5729 5725 5721 5717 5713 5708 5704 5699 5695 5690 5684 5679 5673 5667 5662 5656 5649 5642 5635 5627 5619 5611 5604 5596 5588 5580 5573 5568 5562 5557 5552 5548
5758 5755 5752 5749 5745 5741 5737 5732 5728 5724 5720 5715 5711 5707 5702 5698 5694 5689 5685 5680 5675 5670 5665 5659 5654 5648 5642 5635 5627 5620 5612 5604 5596 5589 5582 5575 5569 5563 5558 5553 5549 5544 5540
5746 5743 5740 5736 5732 5728 5723 5719 5714 5710 5705 5701 5697 5692 5688 5684 5679 5675 5670 5666 5661 5656 5651 5646 5641 5635 5628 5620 5613 5606 5598 5591 5584 5578 5572 5566 5561 5555 5550 5545 5541 5537 5532
5733 5730 5726 5722 5718 5714 5710 5705 5701 5696 5691 5687 5682 5678 5674 5670 5665 5661 5657 5653 5648 5643 5638 5632 5627 5621 5614 5607 5600 5593 5587 5581 5575 5570 5565 5559 5554 5549 5544 5538 5533 5529 5525
5719 5716 5712 5708 5704 5700 5695 5691 5686 5682 5677 5673 5668 5664 5660 5656 5652 5648 5643 5640 5635 5631 5625 5620 5614 5608 5602 5596 5589 5583 5578 5573 5568 5563 5558 5553 5548 5543 5537 5532 5526 5521 5517
5706 5702 5698 5694 5690 5686 5681 5677 5672 5668 5663 5659 5655 5651 5647 5643 5639 5635 5631 5627 5623 5619 5614 5609 5603 5597 5592 5587 5581 5576 5571 5567 5562 5558 5553 5547 5542 5536 5531 5525 5520 5515 5511
5692 5688 5684 5680 5676 5672 5668 5664 5659 5655 5650 5646 5642 5638 5634 5631 5627 5623 5619 5615 5611 5607 5603 5599 5594 5589 5585 5580 5576 5571 5567 5563 5558 5553 5548 5542 5537 5531 5526 5520 5516 5511 5507
5680 5676 5671 5667 5663 5659 5654 5650 5646 5642 5637 5633 5629 5625 5622 5618 5615 5611 5607 5603 5600 5597 5593 5590 5586 5583 5579 5575 5572 5568 5565 5560 5555 5550 5544 5539 5533 5528 5522 5517 5512 5508 5503
5668 5663 5659 5655 5650 5646 5642 5638 5633 5629 5625 5621 5617 5614 5610 5607 5604 5601 5597 5594 5591 5588 5585 5582 5580 5577 5575 5572 5569 5566 5562 5558 5553 5547 5542 5537 5531 5526 5521 5516 5511 5506 5501
5656 5652 5647 5643 5639 5634 5630 5626 5622 5618 5614 5610 5606 5603 5600 5596 5593 5591 5588 5585 5583 5581 5579 5577 5575 5574 5572 5570 5568 5564 5561 5556 5551 5546 5541 5535 5530 5525 5520 5515 5510 5505 5500
5646 5641 5637 5632 5628 5624 5619 5615 5611 5607 5603 5599 5596 5593 5590 5587 5585 5583 5581 5579 5577 5576 5575 5574 5573 5572 5571 5569 5566 5563 5560 5555 5551 5545 5540 5535 5530 5524 5520 5515 5510 5505 5499
5637 5632 5627 5623 5618 5614 5609 5605 5601 5597 5593 5590 5587 5584 5582 5580 5577 5576 5575 5574 5573 5572 5572 5572 5572 5571 5570 5568 5566 5563 5559 5555 5551 5546 5541 5535 5530 5525 5520 5515 5510 5505 5499
5628 5623 5619 5614 5609 5605 5601 5597 5593 5589 5586 5583 5580 5577 5575 5574 5572 5571 5570 5570 5570 5571 5571 5571 5571 5571 5570 5568 5566 5563 5560 5556 5552 5547 5542 5537 5532 5527 5522 5517 5512 5506 5501
5620 5616 5611 5607 5602 5598 5594 5590 5585 5583 5580 5577 5575 5573 5571 5570 5569 5568 5568 5569 5570 5570 5571 5571 5571 5571 5569 5568 5566 5564 5561 5558 5554 5549 5544 5539 5534 5530 5525 5520 5515 5510 5504
5614 5610 5605 5601 5597 5593 5588 5585 5581 5579 5576 5574 5572 5570 5568 5568 5567 5568 5569 5570 5571 5571 5572 5572 5572 5571 5570 5569 5567 5566 5563 5560 5556 5552 5547 5542 5538 5533 5528 5524 5519 5514 5509
5609 5605 5601 5597 5593 5589 5585 5582 5579 5576 5574 5572 5571 5569 5568 5568 5568 5569 5570 5571 5572 5573 5573 5573 5573 5572 5571 5570 5569 5568 5565 5562 5559 5555 5551 5546 5542 5537 5533 5528 5524 5520 5515
5606 5602 5598 5594 5591 5587 5584 5581 5579 5576 5575 5573 5572 5571 5571 5571 5571 5572 5573 5574 5574 5574 5575 5575 5574 5574 5573 5573 5572 5570 5568 5565 5562 5559 5555 5551 5547 5543 5538 5534 5530 5526 5522
5604 5600 5597 5593 5590 5587 5584 5582 5580 5578 5577 5576 5575 5574 5574 5575 5575 5575 5576 5576 5576 5577 5577 5577 5577 5576 5576 5575 5574 5573 5571 5569 5566 5563 5559 5556 5552 5548 5544 5541 5537 5533 5529
5604 5600 5597 5594 5592 5589 5587 5585 5583 5581 5580 5580 5579 5579 5579 5579 5579 5579 5579 5579 5579 5579 5579 5579 5579 5579 5579 5578 5577 5576 5574 5572 5570 5568 5565 5561 5558 5554 5551 5547 5543 5540 5536
5605 5602 5599 5596 5594 5592 5590 5589 5587 5586 5585 5584 5584 5584 5583 5583 5583 5582 5582 5582 5582 5582 5582 5582 5583 5583 5582 5582 5581 5580 5578 5576 5574 5572 5570 5567 5563 5560 5557 5553 5550 5547 5543
5607 5604 5602 5600 5598 5596 5594 5593 5592 5591 5590 5589 5589 5588 5587 5587 5586 5586 5586 5585 5585 5585 5586 5586 5586 5586 5586 5585 5584 5584 5582 5581 5579 5577 5574 5572 5569 5566 5563 5559 5556 5553 5550
5610 5607 5605 5603 5601 5600 5599 5597 5596 5595 5594 5594 5593 5592 5591 5590 5590 5589 5589 5589 5589 5589 5589 5589 5589 5589 5589 5589 5588 5587 5586 5585 5583 5581 5579 5577 5574 5571 5568 5565 5562 5559 5556
5612 5610 5608 5606 5605 5603 5602 5601 5600 5599 5598 5597 5596 5595 5594 5594 5593 5592 5592 5592 5592 5592 5592 5592 5593 5593 5593 5593 5592 5591 5590 5589 5587 5585 5583 5581 5578 5575 5573 5570 5567 5564 5561
5615 5613 5611 5609 5607 5606 5605 5604 5604 5603 5602 5601 5600 5599 5598 5597 5596 5596 5595 5595 5595 5595 5595 5596 5596 5596 5596 5596 5596 5595 5594 5593 5591 5589 5587 5585 5582 5579 5577 5574 5571 5568 5566